| time (UTC) | temp C | wind direction | speed KPH | gust KPH | rain 1hr cm | rain 24hr cm | rain mn cm | humidity % | barometer mb |
| 20260902191555 | 15 | 219 | 1.6 | 0.0 | 0.00 | 0.00 | 0.05 | 90 | 1012.9 |
| 20260902190053 | 15 | 228 | 1.6 | 0.0 | 0.00 | 0.00 | 0.05 | 90 | 1013.0 |
| 20260902184543 | 15 | 221 | 1.6 | 0.0 | 0.00 | 0.00 | 0.05 | 90 | 1012.9 |
| 20260902183043 | 15 | 214 | 3.2 | 0.0 | 0.00 | 0.00 | 0.05 | 90 | 1012.6 |
| 20260902181549 | 15 | 232 | 1.6 | 0.0 | 0.00 | 0.00 | 0.05 | 89 | 1012.5 |
| 20260902180044 | 16 | 227 | 1.6 | 0.0 | 0.00 | 0.00 | 0.05 | 89 | 1012.6 |
| 20260902174544 | 16 | 223 | 1.6 | 0.0 | 0.00 | 0.00 | 0.05 | 89 | 1012.5 |
| 20260902173042 | 16 | 234 | 3.2 | 0.0 | 0.00 | 0.00 | 0.05 | 89 | 1012.6 |
| 20260902171603 | 16 | 227 | 1.6 | 0.0 | 0.00 | 0.00 | 0.05 | 89 | 1012.6 |
| 20260902170039 | 16 | 240 | 3.2 | 0.0 | 0.00 | 0.00 | 0.05 | 89 | 1012.5 |
| 20260902164537 | 16 | 244 | 3.2 | 0.0 | 0.00 | 0.00 | 0.05 | 89 | 1012.7 |
| 20260902163036 | 16 | 249 | 3.2 | 0.0 | 0.00 | 0.00 | 0.05 | 88 | 1012.8 |
| 20260902161539 | 16 | 231 | 4.8 | 0.0 | 0.00 | 0.00 | 0.05 | 89 | 1012.9 |
| 20260902160041 | 16 | 239 | 3.2 | 0.0 | 0.00 | 0.00 | 0.05 | 89 | 1012.8 |
| 20260902154536 | 16 | 216 | 1.6 | 0.0 | 0.00 | 0.00 | 0.05 | 88 | 1012.8 |
| 20260902153033 | 16 | 234 | 1.6 | 0.0 | 0.00 | 0.00 | 0.05 | 89 | 1012.8 |
| 20260902151533 | 16 | 232 | 4.8 | 0.0 | 0.00 | 0.00 | 0.05 | 89 | 1013.0 |
| 20260902150031 | 16 | 219 | 3.2 | 0.0 | 0.00 | 0.00 | 0.05 | 89 | 1013.1 |
| 20260902144534 | 16 | 247 | 3.2 | 0.0 | 0.00 | 0.00 | 0.05 | 89 | 1013.0 |
| 20260902143031 | 16 | 234 | 3.2 | 0.0 | 0.00 | 0.00 | 0.05 | 90 | 1013.0 |
| 20260902141537 | 16 | 223 | 3.2 | 0.0 | 0.00 | 0.00 | 0.05 | 90 | 1013.1 |
| 20260902140028 | 16 | 226 | 1.6 | 0.0 | 0.00 | 0.00 | 0.05 | 89 | 1013.1 |
| 20260902134528 | 16 | 222 | 1.6 | 0.0 | 0.00 | 0.00 | 0.05 | 88 | 1013.2 |
| 20260902133031 | 15 | 245 | 0.0 | 0.0 | 0.00 | 0.00 | 0.05 | 88 | 1013.2 |
| 20260902131527 | 15 | 246 | 0.0 | 0.0 | 0.00 | 0.00 | 0.05 | 86 | 1013.3 |
| 20260902130032 | 16 | 255 | 0.0 | 0.0 | 0.00 | 0.00 | 0.05 | 84 | 1013.5 |
| 20260902124526 | 18 | 261 | 6.4 | 0.0 | 0.00 | 0.00 | 0.05 | 80 | 1013.6 |
| 20260902123026 | 19 | 234 | 4.8 | 0.0 | 0.00 | 0.00 | 0.05 | 80 | 1013.1 |
| 20260902121525 | 20 | 221 | 4.8 | 0.0 | 0.00 | 0.00 | 0.05 | 76 | 1013.1 |
| 20260902120024 | 20 | 238 | 3.2 | 0.0 | 0.00 | 0.00 | 0.05 | 75 | 1013.2 |
| 20260902114527 | 20 | 221 | 3.2 | 0.0 | 0.00 | 0.00 | 0.05 | 74 | 1013.2 |
| 20260902113027 | 20 | 227 | 4.8 | 0.0 | 0.00 | 0.00 | 0.05 | 72 | 1013.3 |
| 20260902111523 | 20 | 229 | 3.2 | 0.0 | 0.00 | 0.00 | 0.05 | 71 | 1013.4 |
| 20260902110023 | 21 | 244 | 3.2 | 0.0 | 0.00 | 0.00 | 0.05 | 71 | 1013.4 |
| 20260902104526 | 20 | 215 | 6.4 | 0.0 | 0.00 | 0.00 | 0.05 | 73 | 1013.4 |
| 20260902103019 | 20 | 229 | 1.6 | 0.0 | 0.00 | 0.00 | 0.05 | 74 | 1013.4 |
| 20260902101519 | 20 | 214 | 4.8 | 0.0 | 0.00 | 0.00 | 0.05 | 75 | 1013.4 |
| 20260902100018 | 20 | 215 | 1.6 | 0.0 | 0.00 | 0.00 | 0.05 | 76 | 1013.4 |
| 20260902094516 | 20 | 192 | 1.6 | 0.0 | 0.00 | 0.00 | 0.05 | 76 | 1013.4 |
| 20260902093015 | 20 | 224 | 3.2 | 0.0 | 0.00 | 0.00 | 0.05 | 79 | 1013.4 |
| 20260902091515 | 19 | 217 | 8.0 | 0.0 | 0.00 | 0.00 | 0.05 | 78 | 1013.5 |
| 20260902090014 | 20 | 238 | 3.2 | 0.0 | 0.00 | 0.00 | 0.03 | 79 | 1013.5 |
| 20260902084516 | 19 | 225 | 3.2 | 0.0 | 0.00 | 0.00 | 0.03 | 81 | 1013.5 |
| 20260902083006 | 18 | 229 | 1.6 | 0.0 | 0.00 | 0.00 | 0.03 | 83 | 1013.5 |
| 20260902081504 | 18 | 227 | 1.6 | 0.0 | 0.00 | 0.00 | 0.03 | 84 | 1013.4 |
| 20260902080002 | 17 | 244 | 1.6 | 0.0 | 0.00 | 0.00 | 0.03 | 86 | 1013.5 |
| 20260902074612 | 17 | 238 | 1.6 | 0.0 | 0.00 | 0.00 | 0.03 | 87 | 1013.4 |
| 20260902073057 | 17 | 219 | 3.2 | 0.0 | 0.00 | 0.00 | 0.03 | 88 | 1013.3 |
| 20260902071557 | 17 | 227 | 3.2 | 0.0 | 0.00 | 0.00 | 0.03 | 88 | 1013.2 |
| 20260902070053 | 16 | 222 | 3.2 | 0.0 | 0.00 | 0.00 | 0.03 | 89 | 1013.2 |
| 20260902064553 | 16 | 216 | 4.8 | 0.0 | 0.00 | 0.00 | 0.03 | 89 | 1013.1 |
| 20260902063110 | 16 | 225 | 3.2 | 0.0 | 0.00 | 0.00 | 0.03 | 90 | 1013.2 |
| 20260902061553 | 15 | 215 | 3.2 | 0.0 | 0.00 | 0.00 | 0.03 | 90 | 1013.1 |
| 20260902060105 | 15 | 229 | 1.6 | 0.0 | 0.00 | 0.00 | 0.03 | 90 | 1013.1 |
| 20260902054603 | 15 | 218 | 1.6 | 0.0 | 0.00 | 0.00 | 0.03 | 90 | 1013.1 |
| 20260902053047 | 15 | 221 | 1.6 | 0.0 | 0.00 | 0.00 | 0.03 | 91 | 1013.1 |
| 20260902051552 | 15 | 229 | 3.2 | 0.0 | 0.00 | 0.00 | 0.03 | 91 | 1013.1 |
| 20260902050046 | 15 | 217 | 1.6 | 0.0 | 0.00 | 0.00 | 0.03 | 91 | 1013.1 |
| 20260902044546 | 15 | 226 | 0.0 | 0.0 | 0.00 | 0.00 | 0.03 | 91 | 1013.1 |
| 20260902043105 | 15 | 240 | 0.0 | 0.0 | 0.00 | 0.00 | 0.03 | 91 | 1013.2 |
| 20260902041600 | 15 | 225 | 1.6 | 0.0 | 0.00 | 0.00 | 0.03 | 91 | 1013.1 |
| 20260902040045 | 14 | 238 | 1.6 | 0.0 | 0.00 | 0.00 | 0.03 | 91 | 1013.3 |
| 20260902034550 | 14 | 259 | 0.0 | 0.0 | 0.00 | 0.00 | 0.03 | 91 | 1013.2 |
| 20260902033046 | 14 | 226 | 1.6 | 0.0 | 0.00 | 0.00 | 0.03 | 91 | 1013.3 |
| 20260902031542 | 13 | 225 | 0.0 | 0.0 | 0.00 | 0.00 | 0.03 | 90 | 1013.4 |
| 20260902030044 | 13 | 249 | 0.0 | 0.0 | 0.00 | 0.00 | 0.03 | 90 | 1013.4 |
| 20260902024542 | 13 | 259 | 0.0 | 0.0 | 0.00 | 0.00 | 0.03 | 90 | 1013.5 |
| 20260902023041 | 13 | 280 | 0.0 | 0.0 | 0.00 | 0.00 | 0.03 | 89 | 1013.4 |
| 20260902021540 | 13 | 280 | 0.0 | 0.0 | 0.00 | 0.00 | 0.03 | 89 | 1013.4 |
| 20260902020043 | 13 | 280 | 0.0 | 0.0 | 0.00 | 0.00 | 0.03 | 88 | 1013.3 |
| 20260902014548 | 13 | 280 | 0.0 | 0.0 | 0.00 | 0.00 | 0.03 | 88 | 1013.3 |
| 20260902013043 | 13 | 280 | 0.0 | 0.0 | 0.00 | 0.00 | 0.03 | 87 | 1013.3 |
| 20260902011535 | 13 | 280 | 0.0 | 0.0 | 0.00 | 0.00 | 0.03 | 87 | 1013.2 |
| 20260902010046 | 13 | 280 | 0.0 | 0.0 | 0.00 | 0.00 | 0.03 | 86 | 1013.4 |
| 20260902004535 | 14 | 280 | 0.0 | 0.0 | 0.00 | 0.00 | 0.03 | 86 | 1013.6 |
| 20260902003106 | 14 | 267 | 0.0 | 0.0 | 0.00 | 0.00 | 0.03 | 85 | 1013.4 |
| 20260902001533 | 14 | 170 | 0.0 | 0.0 | 0.00 | 0.00 | 0.03 | 85 | 1013.5 |
| 20260902000034 | 14 | 167 | 0.0 | 0.0 | 0.00 | 0.00 | 0.00 | 84 | 1013.6 |
| 20260901234528 | 14 | 346 | 0.0 | 0.0 | 0.00 | 0.00 | 0.00 | 85 | 1013.6 |
| 20260901233027 | 14 | 240 | 0.0 | 0.0 | 0.00 | 0.00 | 0.00 | 84 | 1013.7 |
| 20260901231525 | 15 | 237 | 0.0 | 0.0 | 0.00 | 0.00 | 0.00 | 85 | 1013.7 |
| 20260901230024 | 15 | 229 | 0.0 | 0.0 | 0.00 | 0.00 | 0.00 | 85 | 1013.6 |
| 20260901224522 | 15 | 276 | 0.0 | 0.0 | 0.00 | 0.00 | 0.00 | 86 | 1013.5 |
| 20260901223020 | 15 | 286 | 0.0 | 0.0 | 0.00 | 0.00 | 0.00 | 86 | 1013.4 |
| 20260901221520 | 15 | 253 | 0.0 | 0.0 | 0.00 | 0.00 | 0.00 | 87 | 1013.3 |
| 20260901220033 | 15 | 253 | 0.0 | 0.0 | 0.00 | 0.00 | 0.00 | 87 | 1013.3 |
| 20260901214516 | 15 | 254 | 0.0 | 0.0 | 0.00 | 0.00 | 0.10 | 88 | 1013.3 |
| 20260901213015 | 15 | 330 | 0.0 | 0.0 | 0.00 | 0.00 | 0.10 | 87 | 1013.2 |
| 20260901211514 | 15 | 330 | 0.0 | 0.0 | 0.00 | 0.00 | 0.10 | 87 | 1013.1 |
| 20260901210014 | 15 | 330 | 0.0 | 0.0 | 0.00 | 0.00 | 0.10 | 86 | 1013.0 |
| 20260901204514 | 15 | 330 | 0.0 | 0.0 | 0.00 | 0.00 | 0.10 | 85 | 1013.0 |
| 20260901203011 | 15 | 330 | 0.0 | 0.0 | 0.00 | 0.00 | 0.10 | 85 | 1013.0 |
| 20260901201510 | 15 | 330 | 0.0 | 0.0 | 0.00 | 0.00 | 0.10 | 84 | 1013.0 |
| 20260901200009 | 16 | 330 | 0.0 | 0.0 | 0.00 | 0.00 | 0.10 | 83 | 1012.9 |
| 20260901194508 | 16 | 330 | 0.0 | 0.0 | 0.00 | 0.00 | 0.10 | 82 | 1012.8 |
| 20260901193008 | 16 | 330 | 0.0 | 0.0 | 0.00 | 0.00 | 0.10 | 82 | 1012.8 |